Location: Arrodets-la-Barthe
(43.0306°N, 0.2829°E)
Time: 15:22:27
(UTC+00:00)

Cosmos 1934 Rocket - Pass Details

Date: 24 October 2021
Orbit: 938 x 998 km, 83.0° (Epoch: 06 December)

Event Time Altitude Azimuth Distance (km) Brightness Sun altitude
Rises 17:24:28 0° 166° (SSE) 3,614 7.0 -4.8°
Reaches altitude 10° 17:27:04 10° 159° (SSE) 2,666 6.2 -5.3°
Maximum altitude 17:32:46 44° 90° (E) 1,287 4.3 -6.3°
Drops below altitude 10° 17:38:27 10° 20° (NNE) 2,663 6.0 -7.3°
Sets 17:41:02 0° 15° (NNE) 3,610 6.7 -7.8°
